Location: �terpigny
(49.8910°N, 2.9249°E)
Time: 03:55:18
(UTC+00:00)

Cosmos 614 Rocket - Pass Details

Date: 07 June 2022
Orbit: 732 x 764 km, 74.1° (Epoch: 06 July)

Event Time Altitude Azimuth Distance (km) Brightness Sun altitude
Rises 00:03:21 0° 333° (NNW) 3,229 8.3 -17.3°
Reaches altitude 10° 00:05:45 10° 329° (NNW) 2,303 7.3 -17.3°
Maximum altitude 00:10:51 56° 253° (WSW) 904 4.2 -17.2°
Enters shadow 00:13:15 30° 188° (S) 1,343 4.7 -17.1°
